Time,TemperatureF,DewpointF,PressureIn,WindDirection,WindDirectionDegrees,WindSpeedMPH,WindSpeedGustMPH,Humidity,HourlyPrecipIn,Conditions,Clouds,dailyrainin,SolarRadiationWatts/m^2,SoftwareType,DateUTC
2013-03-11 00:12:00,27.0,21.0,-100.00,NW,316,0.0,2.0,78,0.00,,,0.00,0.000000,,2013-03-11 06:12:00,
2013-03-11 00:22:00,27.0,21.0,-100.00,NW,316,0.0,2.0,78,0.00,,,0.00,0.000000,,2013-03-11 06:22:00,
2013-03-11 00:32:00,27.0,21.0,-100.00,NW,316,0.0,2.0,78,0.00,,,0.00,0.000000,,2013-03-11 06:32:00,
2013-03-11 00:42:00,27.0,21.0,-100.00,NW,316,0.0,2.0,78,0.00,,,0.00,0.000000,,2013-03-11 06:42:00,
2013-03-11 01:12:00,27.0,21.0,-100.00,NE,38,0.0,2.0,77,0.00,,,0.00,0.000000,,2013-03-11 07:12:00,
2013-03-11 01:21:00,27.0,21.0,-100.00,NE,38,0.0,2.0,77,0.00,,,0.00,0.000000,,2013-03-11 07:21:00,
2013-03-11 01:32:00,27.0,21.0,-100.00,NE,38,0.0,2.0,77,0.00,,,0.00,0.000000,,2013-03-11 07:32:00,
2013-03-11 01:42:00,27.0,21.0,-100.00,NE,38,0.0,2.0,77,0.00,,,0.00,0.000000,,2013-03-11 07:42:00,
2013-03-11 02:12:00,26.0,20.0,-100.00,West,274,0.0,2.0,78,0.00,,,0.00,0.000000,,2013-03-11 08:12:00,
2013-03-11 02:22:00,26.0,20.0,-100.00,West,274,0.0,2.0,78,0.00,,,0.00,0.000000,,2013-03-11 08:22:00,
2013-03-11 02:32:00,26.0,20.0,-100.00,West,274,0.0,2.0,78,0.00,,,0.00,0.000000,,2013-03-11 08:32:00,
2013-03-11 02:42:00,26.0,20.0,-100.00,West,274,0.0,2.0,78,0.00,,,0.00,0.000000,,2013-03-11 08:42:00,
2013-03-11 03:12:00,28.0,19.0,-100.00,NW,317,1.0,4.0,69,0.00,,,0.00,0.000000,,2013-03-11 09:12:00,
2013-03-11 03:22:00,28.0,19.0,-100.00,NW,317,1.0,4.0,69,0.00,,,0.00,0.000000,,2013-03-11 09:22:00,
2013-03-11 03:32:00,28.0,19.0,-100.00,NW,317,1.0,4.0,69,0.00,,,0.00,0.000000,,2013-03-11 09:32:00,
2013-03-11 03:42:00,28.0,19.0,-100.00,NW,317,1.0,4.0,69,0.00,,,0.00,0.000000,,2013-03-11 09:42:00,
2013-03-11 04:12:00,28.0,17.0,-100.00,WSW,257,4.0,8.0,62,0.00,,,0.00,0.000000,,2013-03-11 10:12:00,
2013-03-11 04:22:00,28.0,17.0,-100.00,WSW,257,4.0,8.0,62,0.00,,,0.00,0.000000,,2013-03-11 10:22:00,
2013-03-11 04:32:00,28.0,17.0,-100.00,WSW,257,4.0,8.0,62,0.00,,,0.00,0.000000,,2013-03-11 10:32:00,
2013-03-11 04:41:00,28.0,17.0,-100.00,WSW,257,4.0,8.0,62,0.00,,,0.00,0.000000,,2013-03-11 10:41:00,
2013-03-11 05:12:00,28.0,18.0,-100.00,SSE,154,0.0,7.0,66,0.00,,,0.00,0.000000,,2013-03-11 11:12:00,
2013-03-11 05:22:00,28.0,18.0,-100.00,SSE,154,0.0,7.0,66,0.00,,,0.00,0.000000,,2013-03-11 11:22:00,
2013-03-11 05:32:00,28.0,18.0,-100.00,SSE,154,0.0,7.0,66,0.00,,,0.00,0.000000,,2013-03-11 11:32:00,
2013-03-11 05:42:00,28.0,18.0,-100.00,SSE,154,0.0,7.0,66,0.00,,,0.00,0.000000,,2013-03-11 11:42:00,
2013-03-11 06:12:00,27.0,19.0,-100.00,SE,136,1.0,5.0,71,0.00,,,-99.99,0.000000,,2013-03-11 12:12:00,
2013-03-11 06:22:00,27.0,19.0,-100.00,SE,136,1.0,5.0,71,0.00,,,-99.99,0.000000,,2013-03-11 12:22:00,
2013-03-11 06:32:00,27.0,19.0,-100.00,SE,136,1.0,5.0,71,0.00,,,-99.99,0.000000,,2013-03-11 12:32:00,
2013-03-11 06:42:00,27.0,19.0,-100.00,SE,136,1.0,5.0,71,0.00,,,-99.99,0.000000,,2013-03-11 12:42:00,
2013-03-11 07:12:00,27.0,19.0,-100.00,NW,308,1.0,3.0,72,0.00,,,-99.99,0.000000,,2013-03-11 13:12:00,
2013-03-11 07:22:00,27.0,19.0,-100.00,NW,308,1.0,3.0,72,0.00,,,-99.99,0.000000,,2013-03-11 13:22:00,
2013-03-11 07:32:00,27.0,19.0,-100.00,NW,308,1.0,3.0,72,0.00,,,-99.99,0.000000,,2013-03-11 13:32:00,
2013-03-11 07:42:00,27.0,19.0,-100.00,NW,308,1.0,3.0,72,0.00,,,-99.99,0.000000,,2013-03-11 13:42:00,
2013-03-11 08:12:00,26.0,20.0,-100.00,NW,314,1.0,3.0,79,0.00,,,-99.99,0.000000,,2013-03-11 14:12:00,
2013-03-11 08:22:00,26.0,20.0,-100.00,NW,314,1.0,3.0,79,0.00,,,-99.99,0.000000,,2013-03-11 14:22:00,
2013-03-11 08:32:00,26.0,20.0,-100.00,NW,314,1.0,3.0,79,0.00,,,-99.99,0.000000,,2013-03-11 14:32:00,
2013-03-11 08:42:00,26.0,20.0,-100.00,NW,314,1.0,3.0,79,0.00,,,-99.99,0.000000,,2013-03-11 14:42:00,
2013-03-11 09:12:00,27.0,22.0,-100.00,WSW,247,1.0,3.0,80,0.00,,,0.00,21.000000,,2013-03-11 15:12:00,
2013-03-11 09:22:00,27.0,22.0,-100.00,WSW,247,1.0,3.0,80,0.00,,,0.00,21.000000,,2013-03-11 15:22:00,
2013-03-11 09:32:00,27.0,22.0,-100.00,WSW,247,1.0,3.0,80,0.00,,,0.00,21.000000,,2013-03-11 15:32:00,
2013-03-11 09:42:00,27.0,22.0,-100.00,WSW,247,1.0,3.0,80,0.00,,,0.00,21.000000,,2013-03-11 15:42:00,
2013-03-11 10:12:00,29.0,21.0,-100.00,WSW,239,2.0,5.0,73,0.00,,,-99.99,79.000000,,2013-03-11 16:12:00,
2013-03-11 10:22:00,29.0,21.0,-100.00,WSW,239,2.0,5.0,73,0.00,,,-99.99,79.000000,,2013-03-11 16:22:00,
2013-03-11 10:32:00,29.0,21.0,-100.00,WSW,239,2.0,5.0,73,0.00,,,-99.99,79.000000,,2013-03-11 16:32:00,
2013-03-11 10:42:00,29.0,21.0,-100.00,WSW,239,2.0,5.0,73,0.00,,,-99.99,79.000000,,2013-03-11 16:42:00,
2013-03-11 11:02:00,31.0,22.0,-100.00,West,279,2.0,8.0,68,0.00,,,-99.99,135.000000,,2013-03-11 17:02:00,
2013-03-11 11:13:00,31.0,22.0,-100.00,West,279,2.0,8.0,68,0.00,,,-99.99,135.000000,,2013-03-11 17:13:00,
2013-03-11 11:24:00,31.0,22.0,-100.00,West,279,2.0,8.0,68,0.00,,,-99.99,135.000000,,2013-03-11 17:24:00,
2013-03-11 11:34:00,31.0,22.0,-100.00,West,279,2.0,8.0,68,0.00,,,-99.99,135.000000,,2013-03-11 17:34:00,
2013-03-11 11:42:00,31.0,22.0,-100.00,West,279,2.0,8.0,68,0.00,,,-99.99,135.000000,,2013-03-11 17:42:00,
2013-03-11 12:12:00,40.0,23.0,-100.00,SSW,204,4.0,10.0,50,0.01,,,0.01,449.000000,,2013-03-11 18:12:00,
2013-03-11 12:22:00,40.0,23.0,-100.00,SSW,204,4.0,10.0,50,0.01,,,0.01,449.000000,,2013-03-11 18:22:00,
2013-03-11 12:32:00,40.0,23.0,-100.00,SSW,204,4.0,10.0,50,0.01,,,0.01,449.000000,,2013-03-11 18:32:00,
2013-03-11 12:42:00,40.0,23.0,-100.00,SSW,204,4.0,10.0,50,0.01,,,0.01,449.000000,,2013-03-11 18:42:00,
2013-03-11 13:12:00,40.0,24.0,-100.00,WSW,257,5.0,11.0,52,0.00,,,0.01,675.000000,,2013-03-11 19:12:00,
2013-03-11 13:22:00,40.0,24.0,-100.00,WSW,257,5.0,11.0,52,0.00,,,0.01,675.000000,,2013-03-11 19:22:00,
2013-03-11 13:32:00,40.0,24.0,-100.00,WSW,257,5.0,11.0,52,0.00,,,0.01,675.000000,,2013-03-11 19:32:00,
2013-03-11 13:42:00,40.0,24.0,-100.00,WSW,257,5.0,11.0,52,0.00,,,0.01,675.000000,,2013-03-11 19:42:00,
2013-03-11 14:12:00,37.0,22.0,-100.00,West,260,6.0,13.0,55,0.00,,,0.01,470.000000,,2013-03-11 20:12:00,
2013-03-11 14:22:00,37.0,22.0,-100.00,West,260,6.0,13.0,55,0.00,,,0.01,470.000000,,2013-03-11 20:22:00,
2013-03-11 14:32:00,37.0,22.0,-100.00,West,260,6.0,13.0,55,0.00,,,0.01,470.000000,,2013-03-11 20:32:00,
2013-03-11 14:42:00,37.0,22.0,-100.00,West,260,6.0,13.0,55,0.00,,,0.01,470.000000,,2013-03-11 20:42:00,
2013-03-11 15:12:00,40.0,26.0,-100.00,WSW,238,6.0,16.0,56,0.00,,,0.01,424.000000,,2013-03-11 21:12:00,
2013-03-11 15:22:00,40.0,26.0,-100.00,WSW,238,6.0,16.0,56,0.00,,,0.01,424.000000,,2013-03-11 21:22:00,
2013-03-11 15:32:00,40.0,26.0,-100.00,WSW,238,6.0,16.0,56,0.00,,,0.01,424.000000,,2013-03-11 21:32:00,
2013-03-11 15:42:00,40.0,26.0,-100.00,WSW,238,6.0,16.0,56,0.00,,,0.01,424.000000,,2013-03-11 21:42:00,
2013-03-11 16:12:00,40.0,24.0,-100.00,SW,223,6.0,17.0,52,0.00,,,0.01,466.000000,,2013-03-11 22:12:00,
2013-03-11 16:22:00,40.0,24.0,-100.00,SW,223,6.0,17.0,52,0.00,,,0.01,466.000000,,2013-03-11 22:22:00,
2013-03-11 16:32:00,40.0,24.0,-100.00,SW,223,6.0,17.0,52,0.00,,,0.01,466.000000,,2013-03-11 22:32:00,
2013-03-11 16:43:00,40.0,24.0,-100.00,SW,223,6.0,17.0,52,0.00,,,0.01,466.000000,,2013-03-11 22:43:00,
2013-03-11 17:12:00,38.0,24.0,-100.00,SW,216,4.0,15.0,57,0.00,,,0.01,450.000000,,2013-03-11 23:12:00,
2013-03-11 17:22:00,38.0,24.0,-100.00,SW,216,4.0,15.0,57,0.00,,,0.01,450.000000,,2013-03-11 23:22:00,
2013-03-11 17:32:00,38.0,24.0,-100.00,SW,216,4.0,15.0,57,0.00,,,0.01,450.000000,,2013-03-11 23:32:00,
2013-03-11 17:42:00,38.0,24.0,-100.00,SW,216,4.0,15.0,57,0.00,,,0.01,450.000000,,2013-03-11 23:42:00,
2013-03-11 18:12:00,38.0,13.0,-100.00,WNW,293,4.0,13.0,35,0.00,,,0.01,147.000000,,2013-03-12 00:12:00,
2013-03-11 18:22:00,38.0,13.0,-100.00,WNW,293,4.0,13.0,35,0.00,,,0.01,147.000000,,2013-03-12 00:22:00,
2013-03-11 18:32:00,38.0,13.0,-100.00,WNW,293,4.0,13.0,35,0.00,,,0.01,147.000000,,2013-03-12 00:32:00,
2013-03-11 18:42:00,38.0,13.0,-100.00,WNW,293,4.0,13.0,35,0.00,,,0.01,147.000000,,2013-03-12 00:42:00,
2013-03-11 19:12:00,34.0,20.0,-100.00,WSW,240,3.0,11.0,55,0.00,,,0.01,69.000000,,2013-03-12 01:12:00,
2013-03-11 19:22:00,34.0,20.0,-100.00,WSW,240,3.0,11.0,55,0.00,,,0.01,69.000000,,2013-03-12 01:22:00,
2013-03-11 19:32:00,34.0,20.0,-100.00,WSW,240,3.0,11.0,55,0.00,,,0.01,69.000000,,2013-03-12 01:32:00,
2013-03-11 19:42:00,34.0,20.0,-100.00,WSW,240,3.0,11.0,55,0.00,,,0.01,69.000000,,2013-03-12 01:42:00,
2013-03-11 20:12:00,28.0,19.0,-100.00,SE,130,1.0,6.0,68,0.00,,,0.01,12.000000,,2013-03-12 02:12:00,
2013-03-11 20:22:00,28.0,19.0,-100.00,SE,130,1.0,6.0,68,0.00,,,0.01,12.000000,,2013-03-12 02:22:00,
2013-03-11 20:32:00,28.0,19.0,-100.00,SE,130,1.0,6.0,68,0.00,,,0.01,12.000000,,2013-03-12 02:32:00,
2013-03-11 20:42:00,28.0,19.0,-100.00,SE,130,1.0,6.0,68,0.00,,,0.01,12.000000,,2013-03-12 02:42:00,
2013-03-11 21:12:00,24.0,18.0,-100.00,East,84,1.0,5.0,79,0.00,,,0.01,0.000000,,2013-03-12 03:12:00,
2013-03-11 21:22:00,24.0,18.0,-100.00,East,84,1.0,5.0,79,0.00,,,0.01,0.000000,,2013-03-12 03:22:00,
2013-03-11 21:32:00,24.0,18.0,-100.00,East,84,1.0,5.0,79,0.00,,,0.01,0.000000,,2013-03-12 03:32:00,
2013-03-11 21:42:00,24.0,18.0,-100.00,East,84,1.0,5.0,79,0.00,,,0.01,0.000000,,2013-03-12 03:42:00,
2013-03-11 22:12:00,22.0,17.0,-100.00,West,273,0.0,2.0,81,0.00,,,0.01,0.000000,,2013-03-12 04:12:00,
2013-03-11 22:22:00,22.0,17.0,-100.00,West,273,0.0,2.0,81,0.00,,,0.01,0.000000,,2013-03-12 04:22:00,
2013-03-11 22:32:00,22.0,17.0,-100.00,West,273,0.0,2.0,81,0.00,,,0.01,0.000000,,2013-03-12 04:32:00,
2013-03-11 22:42:00,22.0,17.0,-100.00,West,273,0.0,2.0,81,0.00,,,0.01,0.000000,,2013-03-12 04:42:00,
2013-03-11 23:12:00,18.0,14.0,-100.00,North,358,0.0,2.0,85,0.00,,,0.01,0.000000,,2013-03-12 05:12:00,
2013-03-11 23:22:00,18.0,14.0,-100.00,North,358,0.0,2.0,85,0.00,,,0.01,0.000000,,2013-03-12 05:22:00,
2013-03-11 23:32:00,18.0,14.0,-100.00,North,358,0.0,2.0,85,0.00,,,0.01,0.000000,,2013-03-12 05:32:00,
2013-03-11 23:42:00,18.0,14.0,-100.00,North,358,0.0,2.0,85,0.00,,,0.01,0.000000,,2013-03-12 05:42:00,